星链-3505 (STARLINK-3505 )

导读

STARLINK-3505是美国SpaceX星链(Starlink)项目的卫星,于2022年2月21日发射。星链计划旨在构建全球卫星互联网星座,为全球偏远地区等提供高速互联网接入服务。STARLINK-3505入轨后,与其他星链卫星组网,进一步扩充星链星座规模,提升星座的覆盖能力与服务稳定性。

基本信息
目录编号:
51750
目录名称:
STARLINK-3505
国际标识:
2022-016AN
轨道中心:
EARTH
卫星名称:
星链-3505
卫星全名:
星链-3505 (STARLINK-3505 )
卫星状态:
在轨 (已飞行1577 天)
发射日期:
2022-02-21 UTC
国别 :
美国 (US)
星等 :
--
轨道信息
数据来源 国际轨道数据 AOE轨道数据
星历时间 2026-06-17T17:26:09+0800
7小时前
查看轨道信息
2026-06-15T04:00:00+0800
2天前
查看轨道信息
半长轴 6917.916km 6917.871km
偏心率 0.0001129 0.0001345
轨道倾角 53.160° 53.159°
近地点辐角 88.910° 74.726°
升交点赤经 221.448° 232.956°
平近点角 271.202° 53.358°
近地点 538.997km 538.803km
远地点 540.561km 540.665km
周期 95.438分钟 95.437分钟
每日圈数 15.088286 15.088431
详细信息
固有亮度:
5
最大亮度:
2.5
卫星平台:
Starlink v1.5
覆盖范围:
全球
运营商:
太空探索技术公司
运营商所在国:
美国
制造商(研发单位):
太空探索技术公司
制造商所在国:
美国
使用方式:
暂无
卫星简介
星链(Starlink)计划是由太空探索技术公司(SpaceX)提出的一个巨型低轨卫星互联网星座项目,计划在2019年至2024年间在太空搭建由约1.2万颗卫星组成的“星链”网络,其中1584颗将部署在地球上空550千米处的近地轨道,并从2020年开始工作。该卫星仍在工作。
2D轨道图
3D轨道图
轨道高度分析图
轨道倾角分析图
轨道综合分析图
查看轨道综合分析图